Time,TemperatureF,DewpointF,PressureIn,WindDirection,WindDirectionDegrees,WindSpeedMPH,WindSpeedGustMPH,Humidity,HourlyPrecipIn,Conditions,Clouds,dailyrainin,SolarRadiationWatts/m^2,SoftwareType,DateUTC
2013-08-15 09:20:00,64.8,63.0,30.03,North,360,0.0,0.0,94,0.00,,,0.06,301,Wunderground v.1.15,2013-08-15 13:20:00,
2013-08-15 09:25:00,64.9,62.8,30.03,North,360,0.0,0.0,93,0.00,,,0.06,292,Wunderground v.1.15,2013-08-15 13:25:00,
2013-08-15 09:30:00,65.1,63.0,30.03,North,360,0.0,0.0,93,0.00,,,0.06,118,Wunderground v.1.15,2013-08-15 13:30:00,
2013-08-15 09:35:00,65.6,63.5,30.03,North,360,0.0,0.0,93,0.00,,,0.06,98,Wunderground v.1.15,2013-08-15 13:35:00,
2013-08-15 09:40:00,65.6,62.9,30.03,North,360,0.0,0.0,91,0.00,,,0.06,86,Wunderground v.1.15,2013-08-15 13:40:00,
2013-08-15 09:45:00,65.6,62.6,30.03,North,360,0.0,0.0,90,0.00,,,0.06,113,Wunderground v.1.15,2013-08-15 13:45:00,
2013-08-15 09:50:00,65.7,62.4,30.03,North,360,0.0,0.0,89,0.00,,,0.06,113,Wunderground v.1.15,2013-08-15 13:50:00,
2013-08-15 10:00:00,65.7,62.0,30.03,North,360,0.0,0.0,88,0.00,,,0.06,79,Wunderground v.1.15,2013-08-15 14:00:00,
2013-08-15 10:05:00,65.8,61.2,30.03,North,360,0.0,0.0,85,0.00,,,0.06,83,Wunderground v.1.15,2013-08-15 14:05:00,
2013-08-15 10:15:00,66.2,62.9,30.03,North,360,0.0,0.0,89,0.00,,,0.06,118,Wunderground v.1.15,2013-08-15 14:15:00,
2013-08-15 10:20:00,66.4,62.4,30.03,North,360,0.0,0.0,87,0.00,,,0.06,105,Wunderground v.1.15,2013-08-15 14:20:00,
2013-08-15 10:25:00,66.6,61.3,30.03,North,360,0.0,0.0,83,0.00,,,0.06,104,Wunderground v.1.15,2013-08-15 14:25:00,
2013-08-15 10:30:00,67.0,62.3,30.03,East,85,0.0,0.0,85,0.00,,,0.06,91,Wunderground v.1.15,2013-08-15 14:30:00,
2013-08-15 10:35:00,67.3,61.6,30.03,East,91,0.0,0.0,82,0.00,,,0.06,114,Wunderground v.1.15,2013-08-15 14:35:00,
2013-08-15 10:40:00,67.6,61.6,30.03,East,93,1.0,1.0,81,0.00,,,0.06,102,Wunderground v.1.15,2013-08-15 14:40:00,
2013-08-15 10:45:00,67.8,61.0,30.03,East,96,1.0,1.0,79,0.00,,,0.06,116,Wunderground v.1.15,2013-08-15 14:45:00,
2013-08-15 10:50:00,68.0,62.6,30.03,East,96,0.0,0.0,83,0.00,,,0.06,163,Wunderground v.1.15,2013-08-15 14:50:00,
2013-08-15 11:00:00,68.5,62.1,30.03,East,98,1.0,1.0,80,0.00,,,0.06,149,Wunderground v.1.15,2013-08-15 15:00:00,
2013-08-15 11:10:00,69.0,61.9,30.03,East,98,1.0,1.0,78,0.00,,,0.06,139,Wunderground v.1.15,2013-08-15 15:10:00,
2013-08-15 11:15:00,69.2,63.1,30.03,East,98,1.0,1.0,81,0.00,,,0.06,114,Wunderground v.1.15,2013-08-15 15:15:00,
2013-08-15 11:25:00,69.6,62.4,30.03,East,98,0.0,0.0,78,0.00,,,0.06,86,Wunderground v.1.15,2013-08-15 15:25:00,
2013-08-15 11:30:00,69.6,62.4,30.03,East,98,0.0,0.0,78,0.00,,,0.06,160,Wunderground v.1.15,2013-08-15 15:30:00,
2013-08-15 11:35:00,69.8,64.1,30.03,East,98,1.0,1.0,82,0.00,,,0.06,176,Wunderground v.1.15,2013-08-15 15:35:00,
2013-08-15 11:40:00,69.9,63.1,30.03,SSE,166,0.0,2.0,79,0.00,,,0.06,144,Wunderground v.1.15,2013-08-15 15:40:00,
2013-08-15 11:50:00,70.3,62.7,30.03,SE,127,1.0,1.0,77,0.00,,,0.06,141,Wunderground v.1.15,2013-08-15 15:50:00,
2013-08-15 11:55:00,70.3,63.1,30.03,ESE,119,1.0,1.0,78,0.00,,,0.06,141,Wunderground v.1.15,2013-08-15 15:55:00,
2013-08-15 12:00:00,70.5,62.9,30.03,South,178,2.0,2.0,77,0.00,,,0.06,188,Wunderground v.1.15,2013-08-15 16:00:00,
2013-08-15 12:05:00,70.8,63.2,30.03,South,175,2.0,2.0,77,0.00,,,0.06,163,Wunderground v.1.15,2013-08-15 16:05:00,
2013-08-15 12:15:00,71.4,63.8,30.03,ESE,121,1.0,3.0,77,0.00,,,0.06,135,Wunderground v.1.15,2013-08-15 16:15:00,
2013-08-15 12:25:00,71.7,63.7,30.02,SE,140,1.0,2.0,76,0.00,,,0.06,160,Wunderground v.1.15,2013-08-15 16:25:00,
2013-08-15 12:30:00,71.9,63.5,30.02,SSE,161,1.0,5.0,75,0.00,,,0.06,531,Wunderground v.1.15,2013-08-15 16:30:00,
2013-08-15 12:35:00,72.1,63.4,30.02,SSE,157,2.0,5.0,74,0.00,,,0.06,766,Wunderground v.1.15,2013-08-15 16:35:00,
2013-08-15 12:40:00,72.6,65.0,30.02,SSE,151,2.0,2.0,77,0.00,,,0.06,733,Wunderground v.1.15,2013-08-15 16:40:00,
2013-08-15 12:50:00,73.1,64.3,30.02,SE,146,2.0,3.0,74,0.00,,,0.06,185,Wunderground v.1.15,2013-08-15 16:50:00,
2013-08-15 12:55:00,73.3,63.7,30.02,SE,146,2.0,3.0,72,0.00,,,0.06,188,Wunderground v.1.15,2013-08-15 16:55:00,
2013-08-15 13:00:00,73.6,64.8,30.02,SSE,164,1.0,1.0,74,0.00,,,0.06,209,Wunderground v.1.15,2013-08-15 17:00:00,
2013-08-15 13:05:00,73.7,63.3,30.02,East,97,1.0,1.0,70,0.00,,,0.06,156,Wunderground v.1.15,2013-08-15 17:05:00,
2013-08-15 13:15:00,73.3,63.3,30.02,SW,219,1.0,3.0,71,0.00,,,0.06,420,Wunderground v.1.15,2013-08-15 17:15:00,
2013-08-15 13:20:00,73.7,63.3,30.01,SSW,194,1.0,1.0,70,0.00,,,0.06,350,Wunderground v.1.15,2013-08-15 17:20:00,
2013-08-15 13:25:00,73.9,63.5,30.01,East,98,1.0,1.0,70,0.00,,,0.06,292,Wunderground v.1.15,2013-08-15 17:25:00,
2013-08-15 13:35:00,73.9,62.7,30.01,ESE,117,1.0,1.0,68,0.00,,,0.06,378,Wunderground v.1.15,2013-08-15 17:35:00,
2013-08-15 13:40:00,74.2,64.6,30.01,ESE,117,1.0,1.0,72,0.00,,,0.06,322,Wunderground v.1.15,2013-08-15 17:40:00,
2013-08-15 13:45:00,74.4,64.8,30.01,ESE,117,0.0,1.0,72,0.00,,,0.06,612,Wunderground v.1.15,2013-08-15 17:45:00,
2013-08-15 13:50:00,74.6,63.3,30.01,East,99,1.0,1.0,68,0.00,,,0.06,652,Wunderground v.1.15,2013-08-15 17:50:00,
2013-08-15 14:00:00,74.4,64.0,30.01,SE,136,2.0,2.0,70,0.00,,,0.06,309,Wunderground v.1.15,2013-08-15 18:00:00,
2013-08-15 14:05:00,74.1,62.0,30.01,ESE,105,2.0,2.0,66,0.00,,,0.06,316,Wunderground v.1.15,2013-08-15 18:05:00,
2013-08-15 14:15:00,74.4,63.6,30.00,ESE,118,1.0,2.0,69,0.00,,,0.06,251,Wunderground v.1.15,2013-08-15 18:15:00,
2013-08-15 14:25:00,74.6,63.8,30.00,ESE,102,1.0,2.0,69,0.00,,,0.06,292,Wunderground v.1.15,2013-08-15 18:25:00,
2013-08-15 14:35:00,74.7,63.9,30.00,South,188,1.0,2.0,69,0.00,,,0.06,272,Wunderground v.1.15,2013-08-15 18:35:00,
2013-08-15 14:40:00,74.8,63.9,30.00,WSW,242,1.0,1.0,69,0.00,,,0.06,265,Wunderground v.1.15,2013-08-15 18:40:00,
2013-08-15 14:45:00,74.8,63.5,30.00,East,86,1.0,1.0,68,0.00,,,0.06,248,Wunderground v.1.15,2013-08-15 18:45:00,
2013-08-15 14:50:00,74.5,64.1,30.00,East,86,1.0,1.0,70,0.00,,,0.06,225,Wunderground v.1.15,2013-08-15 18:50:00,
2013-08-15 15:00:00,74.2,63.4,29.99,South,177,0.0,0.0,69,0.00,,,0.06,200,Wunderground v.1.15,2013-08-15 19:00:00,
2013-08-15 15:05:00,74.2,63.0,29.99,SE,130,0.0,0.0,68,0.00,,,0.06,200,Wunderground v.1.15,2013-08-15 19:05:00,
2013-08-15 15:15:00,74.2,63.8,29.99,NNE,12,1.0,2.0,70,0.00,,,0.06,255,Wunderground v.1.15,2013-08-15 19:15:00,
2013-08-15 15:20:00,74.4,64.4,30.00,East,95,1.0,2.0,71,0.00,,,0.06,394,Wunderground v.1.15,2013-08-15 19:20:00,
2013-08-15 15:25:00,74.6,63.3,30.00,East,99,2.0,2.0,68,0.00,,,0.06,543,Wunderground v.1.15,2013-08-15 19:25:00,
2013-08-15 15:35:00,74.8,63.1,29.99,East,99,0.0,1.0,67,0.00,,,0.06,524,Wunderground v.1.15,2013-08-15 19:35:00,
2013-08-15 15:40:00,75.2,64.3,29.99,East,99,0.0,0.0,69,0.00,,,0.06,478,Wunderground v.1.15,2013-08-15 19:40:00,
2013-08-15 15:45:00,75.2,63.5,29.99,SSE,155,1.0,1.0,67,0.00,,,0.06,299,Wunderground v.1.15,2013-08-15 19:45:00,
2013-08-15 15:50:00,75.1,63.4,29.99,ESE,122,1.0,2.0,67,0.00,,,0.06,352,Wunderground v.1.15,2013-08-15 19:50:00,
2013-08-15 15:55:00,74.8,63.5,29.99,ESE,117,1.0,2.0,68,0.00,,,0.06,236,Wunderground v.1.15,2013-08-15 19:55:00,
2013-08-15 16:05:00,74.7,63.4,29.99,ESE,117,0.0,0.0,68,0.00,,,0.06,165,Wunderground v.1.15,2013-08-15 20:05:00,
2013-08-15 16:15:00,74.5,64.1,29.99,ESE,117,0.0,0.0,70,0.00,,,0.06,160,Wunderground v.1.15,2013-08-15 20:15:00,
2013-08-15 16:20:00,74.4,64.8,29.99,ESE,117,0.0,0.0,72,0.00,,,0.06,169,Wunderground v.1.15,2013-08-15 20:20:00,
2013-08-15 16:25:00,74.4,65.2,29.99,ESE,117,0.0,0.0,73,0.00,,,0.06,179,Wunderground v.1.15,2013-08-15 20:25:00,
2013-08-15 16:35:00,74.5,63.2,29.99,ESE,117,0.0,0.0,68,0.00,,,0.06,141,Wunderground v.1.15,2013-08-15 20:35:00,
2013-08-15 16:40:00,74.4,63.6,29.99,ESE,117,0.0,0.0,69,0.00,,,0.06,144,Wunderground v.1.15,2013-08-15 20:40:00,
2013-08-15 16:45:00,74.4,64.8,29.99,ESE,117,0.0,0.0,72,0.00,,,0.06,116,Wunderground v.1.15,2013-08-15 20:45:00,
2013-08-15 16:55:00,74.2,64.6,29.99,ESE,117,0.0,0.0,72,0.00,,,0.06,98,Wunderground v.1.15,2013-08-15 20:55:00,
2013-08-15 17:00:00,74.0,64.0,29.98,ESE,117,0.0,0.0,71,0.00,,,0.06,88,Wunderground v.1.15,2013-08-15 21:00:00,
2013-08-15 17:05:00,73.7,64.1,29.99,ESE,117,1.0,2.0,72,0.00,,,0.06,91,Wunderground v.1.15,2013-08-15 21:05:00,
2013-08-15 17:15:00,73.1,64.3,29.99,ESE,117,1.0,1.0,74,0.00,,,0.06,74,Wunderground v.1.15,2013-08-15 21:15:00,
2013-08-15 17:20:00,72.9,64.1,29.99,ESE,117,0.0,0.0,74,0.00,,,0.06,69,Wunderground v.1.15,2013-08-15 21:20:00,
2013-08-15 17:25:00,72.6,63.4,29.99,ESE,117,0.0,0.0,73,0.00,,,0.06,70,Wunderground v.1.15,2013-08-15 21:25:00,
2013-08-15 17:30:00,72.2,63.4,29.99,ESE,117,1.0,1.0,74,0.00,,,0.06,72,Wunderground v.1.15,2013-08-15 21:30:00,
2013-08-15 17:40:00,71.9,63.5,29.99,ESE,117,0.0,0.0,75,0.00,,,0.06,83,Wunderground v.1.15,2013-08-15 21:40:00,
2013-08-15 17:50:00,71.7,63.4,29.99,ESE,117,0.0,1.0,75,0.00,,,0.06,84,Wunderground v.1.15,2013-08-15 21:50:00,
2013-08-15 17:55:00,71.6,63.3,29.99,ESE,117,0.0,1.0,75,0.00,,,0.06,86,Wunderground v.1.15,2013-08-15 21:55:00,
2013-08-15 18:00:00,71.5,62.8,29.99,ESE,114,1.0,1.0,74,0.00,,,0.06,100,Wunderground v.1.15,2013-08-15 22:00:00,
2013-08-15 18:05:00,71.3,62.2,29.99,ESE,120,1.0,1.0,73,0.00,,,0.06,81,Wunderground v.1.15,2013-08-15 22:05:00,
2013-08-15 18:15:00,71.1,62.8,30.00,ESE,120,1.0,1.0,75,0.00,,,0.06,65,Wunderground v.1.15,2013-08-15 22:15:00,
2013-08-15 18:20:00,70.8,62.5,30.00,ESE,119,1.0,2.0,75,0.00,,,0.06,69,Wunderground v.1.15,2013-08-15 22:20:00,
2013-08-15 18:25:00,70.5,62.6,30.00,SE,136,2.0,3.0,76,0.00,,,0.06,67,Wunderground v.1.15,2013-08-15 22:25:00,
2013-08-15 18:30:00,70.3,62.4,30.00,ESE,106,2.0,2.0,76,0.00,,,0.06,49,Wunderground v.1.15,2013-08-15 22:30:00,
2013-08-15 18:35:00,70.1,62.2,30.00,SSE,167,2.0,2.0,76,0.00,,,0.06,35,Wunderground v.1.15,2013-08-15 22:35:00,
2013-08-15 18:40:00,69.9,62.7,30.00,SSE,167,1.0,1.0,78,0.00,,,0.06,30,Wunderground v.1.15,2013-08-15 22:40:00,
2013-08-15 18:50:00,69.4,61.9,30.00,South,169,1.0,1.0,77,0.00,,,0.06,37,Wunderground v.1.15,2013-08-15 22:50:00,
2013-08-15 18:55:00,69.2,61.7,30.00,South,180,0.0,1.0,77,0.00,,,0.06,40,Wunderground v.1.15,2013-08-15 22:55:00,
2013-08-15 19:00:00,69.1,61.6,30.00,ESE,106,0.0,0.0,77,0.00,,,0.06,42,Wunderground v.1.15,2013-08-15 23:00:00,
2013-08-15 19:05:00,69.0,61.5,30.00,SE,142,0.0,3.0,77,0.00,,,0.06,39,Wunderground v.1.15,2013-08-15 23:05:00,
2013-08-15 19:15:00,69.0,62.2,30.00,SE,142,0.0,1.0,79,0.00,,,0.06,18,Wunderground v.1.15,2013-08-15 23:15:00,
2013-08-15 19:20:00,68.8,61.7,30.00,ESE,112,0.0,0.0,78,0.00,,,0.06,16,Wunderground v.1.15,2013-08-15 23:20:00,
2013-08-15 19:30:00,68.5,61.7,30.01,ESE,117,0.0,0.0,79,0.00,,,0.06,18,Wunderground v.1.15,2013-08-15 23:30:00,